Location: Gniazdowice
(50.2124°N, 20.2673°E)
Time: 21:24:00
(UTC+00:00)

Cosmos 2219 Rocket - Pass Details

Date: 23 May 2024
Orbit: 826 x 847 km, 71.0° (Epoch: 22 June)

Event Time Altitude Azimuth Distance (km) Brightness Sun altitude
Rises 00:05:31 0° 333° (NNW) 3,397 6.0 -16.4°
Reaches altitude 10° 00:08:17 10° 344° (NNW) 2,463 5.4 -16.3°
Maximum altitude 00:13:13 30° 45° (NE) 1,474 4.2 -15.9°
Drops below altitude 10° 00:18:08 10° 106° (ESE) 2,463 4.7 -15.6°
Sets 00:20:53 0° 117° (ESE) 3,397 5.3 -15.4°
